QPF
0.05 0.06 0.06 0.06 0.06 0.07 0.06 0.05 0.06 0.08 0.07 0.09 0.08 0.06 0.04 0.04 0.02 0.03 0.04 0.03 0.01 0.01 0.02 0.02 0.02 0.02 0.03 0.03 0.03 0.04 0.04 0.03 0.03 0.04 0.05 0.05 0.05 0.05 0.04 0.04 0.04 0.04 0.04
0.05 0.06 0.06 0.06 0.05 0.05 0.06 0.05 0.06 0.09 0.08 0.10 0.08 0.06 0.05 0.03 0.03 0.03 0.05 0.07 0.05 0.03 0.02 0.03 0.03 0.03 0.03 0.03 0.04 0.05 0.04 0.05 0.05 0.05 0.05 0.05 0.05 0.05 0.05 0.05 0.04 0.04 0.04
0.05 0.06 0.06 0.05 0.05 0.04 0.06 0.06 0.07 0.09 0.08 0.10 0.09 0.06 0.04 0.03 0.03 0.04 0.06 0.07 0.08 0.08 0.05 0.03 0.04 0.06 0.05 0.04 0.05 0.07 0.06 0.07 0.08 0.08 0.07 0.06 0.05 0.05 0.05 0.05 0.05 0.05 0.05
0.04 0.06 0.05 0.06 0.07 0.06 0.07 0.07 0.08 0.10 0.11 0.12 0.09 0.05 0.04 0.03 0.04 0.06 0.05 0.05 0.06 0.07 0.07 0.04 0.05 0.06 0.05 0.07 0.08 0.08 0.07 0.07 0.09 0.10 0.09 0.06 0.05 0.05 0.06 0.05 0.04 0.05 0.05
0.05 0.06 0.07 0.08 0.07 0.07 0.08 0.06 0.09 0.09 0.12 0.13 0.09 0.07 0.06 0.05 0.05 0.05 0.05 0.04 0.07 0.07 0.07 0.07 0.05 0.04 0.05 0.08 0.09 0.08 0.09 0.08 0.07 0.07 0.07 0.06 0.05 0.04 0.04 0.04 0.04 0.04 0.05
0.05 0.07 0.07 0.07 0.05 0.06 0.07 0.07 0.08 0.10 0.11 0.10 0.06 0.05 0.04 0.04 0.05 0.05 0.04 0.03 0.06 0.08 0.12 0.10 0.09 0.05 0.05 0.06 0.08 0.07 0.06 0.06 0.06 0.05 0.05 0.07 0.08 0.07 0.06 0.05 0.04 0.04 0.06
0.03 0.05 0.07 0.08 0.08 0.07 0.07 0.08 0.08 0.10 0.12 0.10 0.07 0.06 0.04 0.04 0.05 0.04 0.04 0.03 0.05 0.07 0.09 0.09 0.09 0.09 0.07 0.05 0.07 0.08 0.07 0.06 0.05 0.05 0.04 0.05 0.06 0.07 0.07 0.06 0.06 0.05 0.05
0.03 0.04 0.06 0.05 0.07 0.09 0.09 0.09 0.09 0.09 0.10 0.10 0.10 0.08 0.07 0.07 0.06 0.04 0.03 0.03 0.03 0.06 0.05 0.04 0.07 0.08 0.10 0.12 0.08 0.07 0.09 0.07 0.05 0.07 0.06 0.06 0.06 0.06 0.08 0.10 0.10 0.08 0.07
0.04 0.04 0.04 0.04 0.08 0.08 0.09 0.10 0.09 0.08 0.09 0.09 0.07 0.07 0.09 0.08 0.05 0.04 0.03 0.02 0.03 0.04 0.04 0.03 0.04 0.05 0.06 0.09 0.09 0.07 0.07 0.06 0.05 0.06 0.07 0.07 0.07 0.06 0.06 0.08 0.10 0.09 0.09
0.06 0.04 0.04 0.05 0.08 0.07 0.08 0.07 0.07 0.06 0.06 0.07 0.06 0.05 0.05 0.05 0.06 0.05 0.04 0.04 0.04 0.04 0.03 0.02 0.03 0.05 0.04 0.05 0.07 0.05 0.05 0.04 0.03 0.04 0.05 0.05 0.06 0.06 0.07 0.07 0.09 0.07 0.06
0.04 0.03 0.03 0.04 0.04 0.04 0.04 0.04 0.04 0.05 0.05 0.05 0.05 0.04 0.05 0.06 0.07 0.06 0.05 0.05 0.05 0.04 0.03 0.03 0.05 0.06 0.06 0.06 0.07 0.05 0.04 0.03 0.02 0.02 0.03 0.04 0.05 0.07 0.06 0.05 0.08 0.10 0.08
0.04 0.03 0.02 0.02 0.03 0.03 0.03 0.04 0.05 0.05 0.05 0.05 0.05 0.05 0.05 0.06 0.07 0.06 0.05 0.05 0.04 0.03 0.04 0.04 0.05 0.06 0.08 0.09 0.07 0.06 0.05 0.03 0.03 0.02 0.02 0.03 0.04 0.03 0.04 0.04 0.06 0.09 0.11
0.04 0.04 0.02 0.02 0.03 0.03 0.03 0.04 0.05 0.04 0.05 0.05 0.05 0.05 0.04 0.05 0.06 0.05 0.04 0.03 0.03 0.03 0.04 0.04 0.04 0.04 0.05 0.09 0.09 0.09 0.06 0.04 0.03 0.02 0.02 0.02 0.03 0.03 0.02 0.02 0.04 0.06 0.07
0.03 0.02 0.02 0.02 0.02 0.03 0.04 0.05 0.05 0.04 0.04 0.04 0.03 0.03 0.04 0.03 0.04 0.04 0.03 0.03 0.03 0.03 0.03 0.04 0.04 0.04 0.03 0.04 0.07 0.09 0.09 0.07 0.04 0.03 0.02 0.02 0.02 0.02 0.03 0.04 0.04 0.05 0.06
0.02 0.03 0.03 0.03 0.03 0.04 0.05 0.06 0.05 0.04 0.04 0.03 0.02 0.03 0.03 0.03 0.03 0.02 0.03 0.03 0.03 0.04 0.04 0.04 0.05 0.04 0.04 0.03 0.05 0.05 0.08 0.08 0.05 0.03 0.03 0.02 0.02 0.02 0.02 0.03 0.03 0.04 0.05
0.03 0.03 0.04 0.04 0.04 0.04 0.04 0.05 0.05 0.04 0.04 0.03 0.03 0.03 0.03 0.03 0.03 0.02 0.02 0.03 0.04 0.05 0.04 0.05 0.06 0.04 0.03 0.02 0.03 0.04 0.07 0.08 0.07 0.05 0.03 0.03 0.03 0.02 0.02 0.02 0.02 0.02 0.02
0.02 0.03 0.04 0.05 0.06 0.05 0.06 0.05 0.05 0.05 0.04 0.04 0.03 0.02 0.02 0.03 0.03 0.04 0.04 0.03 0.04 0.05 0.05 0.03 0.03 0.03 0.02 0.01 0.01 0.03 0.04 0.05 0.06 0.07 0.06 0.04 0.04 0.03 0.02 0.01 0.01 0.01 0.01
0.02 0.02 0.03 0.05 0.05 0.06 0.07 0.05 0.05 0.06 0.06 0.06 0.05 0.04 0.04 0.05 0.05 0.04 0.04 0.03 0.04 0.05 0.05 0.03 0.02 0.02 0.02 0.02 0.02 0.02 0.02 0.02 0.02 0.04 0.05 0.05 0.04 0.03 0.03 0.01 0.01 0.01 0.00
0.01 0.01 0.03 0.04 0.03 0.04 0.05 0.04 0.05 0.06 0.06 0.06 0.07 0.06 0.06 0.07 0.06 0.05 0.06 0.05 0.04 0.04 0.05 0.04 0.03 0.03 0.02 0.02 0.03 0.03 0.03 0.04 0.03 0.02 0.03 0.03 0.03 0.03 0.03 0.03 0.01 0.01 0.01
0.01 0.01 0.01 0.02 0.02 0.02 0.04 0.04 0.05 0.06 0.05 0.06 0.06 0.06 0.06 0.06 0.07 0.07 0.07 0.07 0.05 0.06 0.06 0.06 0.04 0.04 0.03 0.04 0.05 0.05 0.06 0.08 0.07 0.04 0.02 0.01 0.02 0.02 0.03 0.03 0.02 0.01 0.01
0.01 0.01 0.01 0.01 0.02 0.02 0.02 0.03 0.03 0.04 0.05 0.06 0.05 0.05 0.06 0.07 0.06 0.07 0.06 0.06 0.07 0.06 0.04 0.05 0.04 0.04 0.03 0.04 0.05 0.06 0.06 0.06 0.07 0.05 0.03 0.02 0.02 0.02 0.03 0.03 0.02 0.01 0.01
0.02 0.02 0.03 0.02 0.02 0.02 0.02 0.02 0.02 0.04 0.06 0.06 0.05 0.05 0.06 0.05 0.05 0.06 0.05 0.05 0.06 0.06 0.05 0.05 0.04 0.03 0.03 0.04 0.05 0.06 0.05 0.05 0.04 0.03 0.04 0.03 0.03 0.03 0.02 0.02 0.02 0.02 0.01
0.02 0.03 0.02 0.02 0.02 0.03 0.02 0.02 0.01 0.03 0.06 0.06 0.06 0.05 0.06 0.04 0.04 0.05 0.04 0.04 0.03 0.03 0.03 0.04 0.03 0.03 0.04 0.05 0.07 0.06 0.06 0.05 0.05 0.04 0.05 0.05 0.05 0.04 0.02 0.01 0.01 0.01 0.01
0.04 0.04 0.04 0.04 0.05 0.03 0.02 0.02 0.02 0.03 0.05 0.04 0.05 0.06 0.06 0.06 0.06 0.06 0.04 0.02 0.02 0.02 0.02 0.03 0.04 0.04 0.04 0.06 0.08 0.08 0.09 0.08 0.07 0.05 0.06 0.07 0.05 0.04 0.02 0.01 0.01 0.01 0.01
0.04 0.04 0.04 0.05 0.05 0.04 0.03 0.03 0.04 0.04 0.04 0.04 0.04 0.04 0.03 0.04 0.04 0.03 0.03 0.03 0.03 0.03 0.02 0.02 0.02 0.02 0.03 0.04 0.06 0.07 0.08 0.08 0.08 0.07 0.06 0.06 0.06 0.06 0.04 0.02 0.01 0.01 0.00
0.02 0.02 0.03 0.04 0.04 0.05 0.05 0.04 0.04 0.03 0.03 0.03 0.03 0.02 0.02 0.02 0.02 0.01 0.03 0.05 0.05 0.04 0.03 0.03 0.02 0.01 0.02 0.03 0.05 0.07 0.09 0.09 0.07 0.07 0.08 0.09 0.06 0.06 0.05 0.04 0.02 0.02 0.01
MSLP
1015.88 1016.02 1016.17 1016.31 1016.42 1016.51 1016.57 1016.57 1016.51 1016.37 1016.18 1015.93 1015.67 1015.45 1015.30 1015.28 1015.41 1015.69 1016.10 1016.59 1017.10 1017.58 1017.98 1018.27 1018.46 1018.55 1018.58 1018.59 1018.59 1018.63 1018.69 1018.79 1018.91 1019.03 1019.14 1019.25 1019.34 1019.41 1019.47 1019.52 1019.55 1019.57 1019.58
1015.97 1016.08 1016.21 1016.33 1016.44 1016.54 1016.60 1016.61 1016.56 1016.45 1016.27 1016.04 1015.79 1015.54 1015.35 1015.26 1015.29 1015.46 1015.76 1016.14 1016.58 1017.03 1017.44 1017.78 1018.04 1018.21 1018.32 1018.38 1018.42 1018.46 1018.49 1018.54 1018.60 1018.67 1018.74 1018.82 1018.90 1018.99 1019.07 1019.14 1019.21 1019.25 1019.27
1016.16 1016.23 1016.33 1016.44 1016.55 1016.64 1016.70 1016.72 1016.69 1016.59 1016.44 1016.23 1015.98 1015.72 1015.49 1015.32 1015.24 1015.28 1015.42 1015.67 1015.99 1016.36 1016.74 1017.09 1017.40 1017.65 1017.85 1017.99 1018.08 1018.14 1018.18 1018.20 1018.21 1018.23 1018.27 1018.32 1018.38 1018.47 1018.57 1018.67 1018.76 1018.84 1018.90
1016.40 1016.45 1016.52 1016.61 1016.71 1016.79 1016.85 1016.87 1016.86 1016.79 1016.66 1016.48 1016.25 1015.99 1015.72 1015.48 1015.29 1015.18 1015.16 1015.23 1015.40 1015.64 1015.93 1016.26 1016.58 1016.89 1017.15 1017.38 1017.54 1017.65 1017.71 1017.74 1017.74 1017.73 1017.73 1017.75 1017.80 1017.88 1017.99 1018.11 1018.23 1018.35 1018.44
1016.66 1016.67 1016.72 1016.80 1016.88 1016.95 1017.01 1017.04 1017.03 1016.99 1016.90 1016.75 1016.55 1016.31 1016.03 1015.73 1015.44 1015.19 1015.00 1014.89 1014.87 1014.95 1015.11 1015.35 1015.64 1015.96 1016.27 1016.56 1016.80 1016.98 1017.09 1017.15 1017.16 1017.15 1017.14 1017.14 1017.17 1017.24 1017.35 1017.48 1017.62 1017.75 1017.88
1016.85 1016.84 1016.87 1016.93 1017.00 1017.07 1017.12 1017.16 1017.18 1017.16 1017.11 1017.01 1016.86 1016.65 1016.38 1016.06 1015.70 1015.33 1014.99 1014.69 1014.47 1014.36 1014.36 1014.47 1014.67 1014.95 1015.27 1015.59 1015.89 1016.13 1016.31 1016.43 1016.48 1016.50 1016.50 1016.50 1016.52 1016.58 1016.67 1016.80 1016.94 1017.08 1017.22
1016.95 1016.91 1016.93 1016.97 1017.04 1017.10 1017.16 1017.21 1017.24 1017.25 1017.24 1017.20 1017.11 1016.96 1016.72 1016.41 1016.03 1015.58 1015.11 1014.66 1014.26 1013.94 1013.75 1013.69 1013.76 1013.95 1014.22 1014.54 1014.87 1015.17 1015.42 1015.60 1015.72 1015.79 1015.82 1015.84 1015.87 1015.92 1015.99 1016.09 1016.22 1016.35 1016.48
1016.94 1016.87 1016.87 1016.91 1016.97 1017.04 1017.10 1017.15 1017.20 1017.24 1017.28 1017.29 1017.27 1017.19 1017.02 1016.75 1016.38 1015.91 1015.37 1014.79 1014.23 1013.73 1013.34 1013.09 1012.99 1013.05 1013.22 1013.49 1013.81 1014.14 1014.44 1014.69 1014.88 1015.02 1015.10 1015.16 1015.20 1015.25 1015.31 1015.38 1015.47 1015.57 1015.68
1016.84 1016.75 1016.73 1016.76 1016.82 1016.88 1016.95 1017.01 1017.07 1017.13 1017.20 1017.26 1017.31 1017.30 1017.21 1017.02 1016.70 1016.25 1015.69 1015.05 1014.38 1013.73 1013.17 1012.73 1012.44 1012.32 1012.36 1012.54 1012.80 1013.11 1013.44 1013.74 1014.00 1014.20 1014.35 1014.45 1014.52 1014.58 1014.62 1014.66 1014.71 1014.77 1014.84
1016.71 1016.59 1016.55 1016.57 1016.62 1016.68 1016.74 1016.80 1016.86 1016.93 1017.01 1017.11 1017.20 1017.27 1017.26 1017.16 1016.92 1016.54 1016.01 1015.36 1014.64 1013.89 1013.19 1012.58 1012.12 1011.82 1011.69 1011.73 1011.89 1012.15 1012.46 1012.78 1013.08 1013.34 1013.55 1013.71 1013.81 1013.87 1013.91 1013.93 1013.94 1013.95 1013.98
1016.57 1016.42 1016.36 1016.37 1016.41 1016.47 1016.52 1016.56 1016.61 1016.66 1016.74 1016.85 1016.97 1017.08 1017.14 1017.12 1016.98 1016.69 1016.23 1015.63 1014.91 1014.13 1013.34 1012.61 1011.98 1011.51 1011.22 1011.09 1011.12 1011.29 1011.54 1011.84 1012.15 1012.45 1012.70 1012.90 1013.04 1013.12 1013.16 1013.16 1013.15 1013.12 1013.11
1016.43 1016.27 1016.20 1016.19 1016.22 1016.26 1016.30 1016.32 1016.33 1016.36 1016.41 1016.49 1016.61 1016.73 1016.84 1016.89 1016.84 1016.64 1016.28 1015.76 1015.10 1014.34 1013.52 1012.71 1011.98 1011.36 1010.90 1010.62 1010.50 1010.54 1010.70 1010.94 1011.23 1011.53 1011.80 1012.02 1012.19 1012.29 1012.34 1012.34 1012.31 1012.27 1012.24
1016.29 1016.12 1016.04 1016.03 1016.04 1016.07 1016.08 1016.07 1016.05 1016.02 1016.02 1016.05 1016.13 1016.24 1016.36 1016.45 1016.46 1016.36 1016.11 1015.69 1015.12 1014.42 1013.63 1012.80 1012.01 1011.29 1010.71 1010.27 1010.01 1009.91 1009.95 1010.10 1010.33 1010.59 1010.85 1011.08 1011.26 1011.38 1011.44 1011.46 1011.43 1011.39 1011.35
1016.10 1015.94 1015.86 1015.84 1015.85 1015.86 1015.85 1015.80 1015.73 1015.65 1015.58 1015.54 1015.56 1015.62 1015.71 1015.81 1015.86 1015.83 1015.67 1015.36 1014.91 1014.30 1013.59 1012.80 1012.00 1011.24 1010.57 1010.02 1009.63 1009.39 1009.30 1009.34 1009.48 1009.68 1009.90 1010.11 1010.28 1010.40 1010.48 1010.50 1010.50 1010.48 1010.46
1015.81 1015.67 1015.60 1015.58 1015.59 1015.58 1015.55 1015.47 1015.35 1015.21 1015.08 1014.97 1014.91 1014.90 1014.94 1015.01 1015.07 1015.07 1014.99 1014.79 1014.45 1013.96 1013.36 1012.65 1011.90 1011.15 1010.44 1009.83 1009.33 1008.98 1008.77 1008.69 1008.72 1008.83 1008.97 1009.13 1009.27 1009.39 1009.47 1009.51 1009.53 1009.54 1009.55
1015.38 1015.27 1015.22 1015.21 1015.21 1015.19 1015.14 1015.04 1014.89 1014.71 1014.52 1014.34 1014.20 1014.12 1014.09 1014.11 1014.15 1014.17 1014.13 1014.01 1013.78 1013.42 1012.94 1012.35 1011.69 1010.99 1010.30 1009.67 1009.12 1008.68 1008.37 1008.18 1008.09 1008.09 1008.14 1008.22 1008.31 1008.39 1008.45 1008.50 1008.54 1008.58 1008.64
1014.81 1014.73 1014.70 1014.69 1014.69 1014.67 1014.61 1014.49 1014.33 1014.12 1013.89 1013.66 1013.46 1013.31 1013.21 1013.17 1013.17 1013.18 1013.18 1013.12 1012.97 1012.73 1012.38 1011.92 1011.38 1010.78 1010.15 1009.54 1008.98 1008.50 1008.11 1007.82 1007.62 1007.50 1007.45 1007.43 1007.43 1007.45 1007.48 1007.51 1007.56 1007.63 1007.72
1014.14 1014.08 1014.05 1014.04 1014.04 1014.01 1013.95 1013.83 1013.67 1013.45 1013.21 1012.96 1012.72 1012.52 1012.37 1012.27 1012.23 1012.21 1012.21 1012.19 1012.11 1011.97 1011.74 1011.42 1011.00 1010.52 1009.99 1009.44 1008.91 1008.41 1007.98 1007.61 1007.32 1007.09 1006.92 1006.79 1006.70 1006.63 1006.60 1006.59 1006.63 1006.70 1006.81
1013.43 1013.38 1013.35 1013.33 1013.30 1013.27 1013.20 1013.09 1012.93 1012.73 1012.50 1012.25 1012.00 1011.78 1011.59 1011.45 1011.37 1011.33 1011.31 1011.31 1011.28 1011.22 1011.09 1010.88 1010.60 1010.24 1009.82 1009.35 1008.87 1008.40 1007.94 1007.53 1007.16 1006.83 1006.55 1006.31 1006.11 1005.95 1005.83 1005.76 1005.75 1005.80 1005.92
1012.78 1012.72 1012.66 1012.61 1012.56 1012.50 1012.42 1012.32 1012.18 1012.00 1011.79 1011.56 1011.33 1011.10 1010.90 1010.74 1010.62 1010.55 1010.52 1010.52 1010.52 1010.51 1010.46 1010.35 1010.18 1009.93 1009.61 1009.24 1008.83 1008.39 1007.95 1007.51 1007.09 1006.69 1006.31 1005.97 1005.66 1005.39 1005.18 1005.03 1004.95 1004.96 1005.04
1012.26 1012.16 1012.06 1011.97 1011.88 1011.79 1011.69 1011.59 1011.46 1011.31 1011.13 1010.93 1010.72 1010.51 1010.31 1010.13 1009.99 1009.90 1009.85 1009.84 1009.85 1009.86 1009.86 1009.82 1009.73 1009.57 1009.35 1009.06 1008.72 1008.33 1007.91 1007.47 1007.03 1006.58 1006.14 1005.71 1005.31 1004.95 1004.64 1004.40 1004.24 1004.18 1004.20
1011.91 1011.76 1011.61 1011.46 1011.32 1011.19 1011.08 1010.96 1010.84 1010.70 1010.55 1010.38 1010.19 1009.99 1009.80 1009.62 1009.47 1009.35 1009.28 1009.25 1009.25 1009.26 1009.28 1009.27 1009.23 1009.13 1008.97 1008.75 1008.47 1008.14 1007.76 1007.34 1006.90 1006.43 1005.96 1005.48 1005.02 1004.58 1004.18 1003.85 1003.61 1003.47 1003.42
1011.73 1011.53 1011.32 1011.12 1010.93 1010.77 1010.62 1010.48 1010.36 1010.23 1010.09 1009.93 1009.76 1009.57 1009.37 1009.18 1009.01 1008.87 1008.77 1008.71 1008.68 1008.68 1008.68 1008.68 1008.65 1008.58 1008.45 1008.28 1008.04 1007.76 1007.42 1007.04 1006.63 1006.18 1005.71 1005.21 1004.72 1004.24 1003.79 1003.39 1003.07 1002.85 1002.72
1011.67 1011.43 1011.18 1010.94 1010.71 1010.51 1010.34 1010.19 1010.05 1009.91 1009.76 1009.60 1009.42 1009.23 1009.02 1008.81 1008.61 1008.44 1008.30 1008.19 1008.12 1008.08 1008.05 1008.02 1007.97 1007.89 1007.77 1007.61 1007.41 1007.16 1006.87 1006.53 1006.17 1005.77 1005.33 1004.87 1004.39 1003.91 1003.44 1003.01 1002.63 1002.34 1002.14
1011.67 1011.40 1011.13 1010.87 1010.63 1010.42 1010.23 1010.07 1009.91 1009.75 1009.59 1009.40 1009.20 1008.97 1008.73 1008.48 1008.24 1008.02 1007.83 1007.67 1007.54 1007.45 1007.36 1007.29 1007.20 1007.09 1006.95 1006.79 1006.59 1006.37 1006.12 1005.84 1005.54 1005.20 1004.84 1004.45 1004.02 1003.58 1003.13 1002.69 1002.30 1001.96 1001.71
1011.65 1011.37 1011.11 1010.85 1010.63 1010.43 1010.25 1010.08 1009.92 1009.74 1009.54 1009.32 1009.07 1008.79 1008.49 1008.19 1007.89 1007.61 1007.35 1007.14 1006.95 1006.79 1006.65 1006.52 1006.38 1006.22 1006.05 1005.87 1005.67 1005.46 1005.24 1005.02 1004.78 1004.53 1004.26 1003.95 1003.61 1003.24 1002.85 1002.45 1002.06 1001.71 1001.43
Thickness
5788 5787 5786 5784 5783 5782 5780 5779 5778 5777 5777 5776 5776 5776 5776 5776 5775 5773 5769 5765 5763 5761 5759 5757 5755 5753 5751 5749 5748 5746 5745 5743 5742 5740 5738 5737 5736 5735 5734 5733 5732 5731 5730
5789 5788 5786 5785 5784 5783 5782 5781 5779 5778 5777 5777 5777 5777 5776 5776 5776 5774 5770 5766 5764 5762 5760 5758 5756 5754 5753 5750 5749 5747 5745 5744 5742 5741 5739 5737 5736 5734 5734 5732 5732 5731 5730
5789 5788 5786 5785 5785 5784 5783 5781 5779 5779 5778 5777 5777 5777 5777 5777 5776 5775 5772 5769 5766 5763 5761 5759 5757 5756 5754 5751 5749 5748 5746 5744 5743 5741 5739 5738 5736 5735 5734 5733 5731 5731 5730
5789 5788 5787 5785 5785 5784 5782 5781 5779 5777 5776 5776 5776 5777 5777 5777 5776 5775 5773 5771 5768 5766 5763 5761 5759 5756 5755 5752 5750 5748 5746 5745 5743 5741 5740 5738 5736 5735 5734 5733 5731 5730 5729
5789 5789 5787 5786 5785 5784 5782 5781 5779 5777 5775 5774 5775 5776 5777 5777 5776 5776 5773 5772 5770 5767 5764 5762 5760 5758 5755 5753 5751 5749 5747 5745 5743 5742 5740 5739 5737 5736 5734 5733 5732 5731 5729
5790 5789 5788 5786 5785 5783 5781 5780 5777 5777 5776 5774 5775 5775 5776 5777 5776 5775 5773 5773 5771 5768 5765 5763 5761 5758 5756 5754 5751 5749 5747 5745 5744 5742 5741 5739 5738 5736 5735 5733 5732 5731 5729
5790 5789 5787 5785 5784 5782 5780 5780 5778 5775 5774 5774 5770 5768 5772 5776 5775 5774 5773 5771 5770 5768 5766 5764 5762 5760 5757 5754 5752 5750 5747 5745 5744 5742 5741 5739 5738 5737 5735 5734 5732 5731 5729
5790 5790 5786 5785 5783 5781 5779 5778 5776 5772 5772 5773 5767 5761 5758 5762 5768 5773 5771 5769 5768 5767 5765 5764 5762 5760 5758 5755 5752 5750 5747 5745 5743 5742 5740 5739 5738 5736 5735 5734 5732 5731 5729
5789 5789 5787 5785 5783 5781 5778 5776 5775 5771 5767 5768 5769 5762 5753 5749 5756 5765 5767 5767 5766 5765 5764 5763 5761 5760 5758 5755 5752 5750 5748 5746 5743 5742 5740 5739 5737 5736 5735 5734 5732 5731 5729
5790 5789 5787 5785 5782 5781 5778 5776 5774 5772 5768 5764 5766 5766 5763 5759 5751 5750 5758 5763 5764 5762 5762 5762 5761 5759 5757 5754 5752 5750 5747 5745 5743 5741 5739 5738 5737 5735 5734 5733 5731 5730 5729
5790 5789 5787 5784 5782 5780 5778 5775 5773 5771 5768 5765 5762 5761 5760 5759 5757 5749 5746 5753 5757 5760 5760 5760 5759 5758 5756 5753 5752 5750 5748 5744 5742 5740 5738 5737 5736 5734 5733 5731 5730 5729 5728
5789 5788 5786 5783 5781 5779 5776 5774 5772 5769 5767 5765 5763 5761 5758 5755 5753 5751 5747 5747 5748 5754 5758 5758 5757 5756 5755 5753 5751 5749 5746 5744 5741 5739 5737 5735 5734 5733 5731 5730 5729 5728 5727
5787 5786 5785 5782 5780 5777 5775 5773 5770 5767 5766 5763 5761 5760 5759 5757 5756 5753 5748 5746 5746 5750 5753 5754 5755 5755 5754 5752 5749 5747 5745 5743 5740 5737 5735 5733 5732 5730 5728 5727 5726 5725 5725
5787 5786 5784 5781 5779 5777 5774 5772 5769 5766 5765 5762 5761 5759 5758 5757 5756 5754 5750 5745 5740 5742 5745 5748 5752 5752 5751 5749 5747 5744 5742 5740 5737 5735 5733 5731 5729 5727 5726 5725 5724 5723 5722
5786 5784 5782 5779 5777 5774 5772 5769 5766 5764 5763 5761 5759 5758 5756 5755 5755 5754 5752 5748 5739 5732 5734 5742 5744 5747 5747 5746 5743 5741 5739 5737 5735 5733 5731 5728 5726 5725 5723 5722 5721 5720 5720
5783 5781 5778 5776 5774 5771 5769 5767 5764 5762 5760 5758 5757 5754 5753 5753 5752 5752 5750 5748 5743 5736 5732 5738 5740 5742 5743 5742 5740 5738 5737 5735 5733 5731 5729 5726 5724 5722 5721 5720 5719 5718 5718
5780 5777 5775 5773 5770 5768 5766 5764 5761 5760 5757 5755 5754 5752 5750 5749 5747 5746 5745 5743 5741 5737 5730 5734 5738 5739 5738 5736 5734 5734 5733 5732 5730 5728 5726 5724 5722 5720 5718 5717 5716 5715 5715
5776 5774 5771 5769 5767 5765 5763 5760 5758 5756 5754 5751 5750 5748 5746 5746 5743 5741 5739 5737 5736 5735 5730 5728 5731 5732 5732 5732 5731 5729 5729 5729 5728 5726 5723 5721 5719 5717 5715 5714 5713 5712 5711
5772 5770 5768 5765 5763 5761 5759 5758 5756 5753 5751 5749 5747 5744 5743 5740 5737 5736 5734 5733 5731 5732 5730 5726 5725 5728 5728 5728 5725 5724 5724 5723 5723 5722 5719 5717 5715 5714 5712 5711 5709 5708 5707
5768 5766 5764 5762 5760 5757 5755 5754 5752 5749 5747 5745 5744 5742 5740 5737 5734 5731 5730 5728 5727 5724 5724 5721 5720 5721 5721 5721 5719 5715 5715 5717 5716 5717 5714 5713 5711 5710 5709 5707 5706 5704 5703
5766 5763 5760 5758 5756 5754 5752 5749 5747 5746 5743 5741 5739 5738 5736 5734 5731 5728 5726 5724 5721 5719 5717 5715 5714 5713 5713 5711 5709 5710 5708 5709 5710 5711 5708 5707 5706 5704 5702 5702 5701 5700 5699
5761 5758 5756 5753 5751 5750 5747 5744 5741 5740 5738 5736 5733 5732 5731 5729 5726 5724 5721 5719 5715 5712 5710 5708 5707 5705 5706 5706 5705 5704 5701 5699 5698 5704 5702 5701 5702 5699 5699 5698 5697 5696 5695
5755 5752 5750 5748 5745 5742 5740 5738 5735 5733 5732 5731 5728 5726 5725 5725 5721 5718 5715 5713 5710 5708 5705 5703 5700 5700 5700 5701 5699 5697 5695 5693 5692 5696 5694 5692 5694 5692 5694 5694 5693 5691 5690
5750 5747 5745 5743 5741 5738 5734 5732 5729 5727 5726 5725 5723 5721 5718 5716 5715 5711 5709 5707 5705 5704 5702 5700 5699 5698 5698 5697 5694 5692 5691 5690 5691 5691 5689 5684 5686 5686 5689 5688 5688 5686 5685
5744 5742 5740 5738 5735 5732 5728 5725 5722 5721 5720 5718 5717 5716 5713 5711 5707 5704 5701 5699 5698 5698 5699 5697 5696 5694 5693 5691 5689 5686 5684 5681 5680 5682 5683 5679 5679 5679 5680 5681 5682 5681 5681
5738 5736 5734 5732 5730 5727 5722 5719 5715 5714 5713 5712 5711 5710 5707 5704 5700 5696 5694 5691 5689 5690 5691 5690 5688 5688 5687 5686 5684 5680 5677 5674 5672 5673 5677 5673 5672 5671 5670 5675 5676 5676 5675